Wind_Speed
10 8 9 12 13 15 18 20 20 20 21 21 20 18 17 15 15 14 13 12 11 9 7 6 6 7 8 9 9 10 11 12 13 13 13 13 13 13 15 16 17 18 19 21 22 23 24 25 26 27 28 29 29 30 30 31 31 31 31 32 32 32 32 32 32 32 32 32 33 33 33 33 33 32 31 31 29 28 28 28 28 29 30 31 32
11 9 12 14 15 17 20 21 21 21 22 21 20 18 16 15 15 14 13 11 10 8 6 5 5 6 7 7 8 9 10 11 12 13 12 12 12 13 14 15 16 17 18 19 21 22 23 24 25 26 28 28 29 30 30 31 31 31 31 31 32 32 33 32 32 32 32 33 33 34 34 35 35 34 34 33 32 31 30 30 30 31 31 32 32
11 12 16 18 18 20 22 22 22 23 22 21 20 18 16 16 15 14 13 11 10 7 5 4 4 4 5 6 7 8 9 11 12 12 12 11 11 11 13 14 15 16 17 18 19 20 22 23 24 26 27 28 28 29 30 30 30 30 30 31 31 32 32 32 32 32 32 32 33 33 34 34 35 34 34 34 33 32 32 31 31 32 32 33 33
12 14 18 21 22 23 24 23 22 23 23 22 20 17 16 15 15 14 13 12 10 7 5 3 2 2 3 4 6 7 8 10 11 12 12 11 10 11 12 13 14 15 16 17 18 19 20 21 23 25 26 27 27 28 28 29 29 29 29 30 30 31 32 32 32 32 32 33 33 33 33 33 34 34 34 34 34 33 33 33 33 33 33 33 33
13 16 20 22 24 26 26 24 23 23 22 22 20 18 16 14 13 13 12 12 10 8 6 4 3 1 1 2 4 5 7 8 10 11 11 11 10 10 12 13 14 15 16 16 17 18 19 19 21 23 25 25 26 26 27 27 27 28 28 28 29 30 31 31 32 33 33 33 33 33 33 33 33 33 34 34 34 34 34 34 34 34 34 34 34
15 19 22 24 26 27 26 24 23 23 22 21 20 19 16 13 11 10 12 12 11 10 8 6 4 3 1 1 2 3 5 7 8 10 11 10 10 10 11 12 13 14 15 16 17 17 18 18 20 21 23 24 25 25 25 25 25 26 26 27 28 29 29 30 31 32 32 32 32 32 32 32 33 33 33 33 33 33 33 33 34 34 34 34 34
18 20 24 26 26 26 25 24 23 23 22 21 20 19 17 15 11 10 12 13 12 12 10 8 6 5 4 3 1 2 3 5 6 8 9 10 9 10 11 12 13 14 15 16 16 17 17 18 19 20 22 22 23 24 24 24 24 24 25 25 26 27 28 29 29 30 30 30 30 31 32 32 33 33 33 33 33 33 33 33 33 33 34 34 34
19 22 25 26 26 26 24 23 23 23 23 22 20 19 17 16 13 10 12 13 13 13 12 10 9 7 6 5 4 3 3 3 4 6 7 8 8 8 10 11 12 13 14 15 16 16 17 17 18 20 21 22 22 23 24 23 23 24 23 23 24 25 26 28 29 29 30 30 30 31 32 33 33 34 34 34 34 34 34 34 34 34 35 35 35
21 23 24 25 26 25 24 23 22 23 23 23 22 20 18 17 15 12 12 14 15 14 14 13 11 9 8 7 6 5 5 4 4 4 5 7 7 7 9 11 12 13 14 14 15 16 16 17 18 19 20 21 22 23 23 23 23 23 23 23 24 24 26 27 29 29 30 30 31 31 32 33 34 34 35 35 36 36 36 36 36 36 37 36 36
22 23 23 23 24 24 23 23 22 23 24 24 24 22 20 19 19 16 14 15 16 16 15 15 13 11 10 8 8 8 7 6 5 5 4 5 5 6 8 10 11 11 12 14 15 15 16 17 17 18 20 21 22 22 23 23 23 23 23 24 24 25 26 27 28 30 31 31 32 32 33 34 34 35 36 36 37 37 37 37 38 38 38 38 38
24 24 23 22 22 22 23 23 23 23 24 24 24 23 21 20 20 19 17 16 17 17 16 15 14 13 12 10 10 10 9 8 7 6 5 5 5 6 7 9 10 10 11 12 14 15 15 16 17 18 19 20 21 22 22 23 24 24 24 25 26 26 27 28 29 30 31 32 33 34 34 35 36 37 38 38 38 38 39 39 40 40 40 40 40
25 25 24 23 23 23 24 24 24 24 23 23 24 23 22 21 21 20 19 18 18 18 17 16 16 15 14 13 12 12 11 10 9 8 7 6 7 7 8 9 10 10 9 11 13 14 14 15 16 17 18 19 20 21 22 23 24 25 25 26 27 28 28 29 30 31 31 32 33 34 35 36 37 38 40 41 41 41 41 41 42 42 42 41 41
25 25 24 25 25 25 25 25 25 25 24 24 24 24 23 22 21 21 20 19 19 19 18 17 17 16 16 15 15 14 13 13 12 10 9 8 8 9 10 11 13 12 10 10 12 14 14 14 15 17 18 19 20 21 22 23 24 25 27 28 29 29 29 31 32 32 33 34 35 35 36 37 38 39 40 42 43 43 44 44 45 45 45 43 42
25 25 26 26 26 26 26 26 26 26 25 25 25 24 24 23 22 21 21 20 19 18 18 17 17 17 17 17 17 16 15 15 14 12 11 11 10 11 12 13 15 16 13 12 13 15 15 15 15 16 18 19 20 21 22 24 25 26 28 29 30 30 31 32 33 34 35 36 36 37 38 39 40 41 42 44 45 45 46 46 47 47 47 46 44
26 26 27 27 27 27 26 26 27 27 27 27 26 25 25 24 23 22 21 21 19 18 18 17 17 17 17 17 17 17 17 17 16 15 13 13 13 13 14 15 17 19 18 15 16 17 17 16 16 17 19 20 20 21 22 24 25 27 28 30 30 31 32 33 34 35 36 37 38 39 40 41 42 43 44 45 46 48 49 48 48 49 49 48 46
27 28 28 28 28 27 27 27 27 27 27 27 27 26 24 24 23 23 22 21 19 18 17 17 17 17 16 15 16 16 17 17 18 17 16 15 15 15 17 18 19 21 21 19 19 20 20 19 19 19 21 21 22 22 23 24 25 27 29 30 32 33 34 35 36 37 37 38 39 40 41 42 44 45 46 46 48 50 51 50 50 51 50 49 47
28 28 28 28 28 27 27 27 27 27 28 27 26 25 24 23 23 23 22 21 19 19 19 19 19 19 18 18 18 19 18 18 19 19 19 18 17 17 19 20 21 23 23 23 22 22 22 23 23 23 23 24 24 24 24 25 26 28 30 31 33 34 35 36 38 39 39 40 40 41 42 43 44 46 46 46 48 52 53 53 54 54 52 50 49
29 29 29 29 29 28 28 28 28 29 29 28 27 25 24 24 24 23 22 21 20 21 22 22 22 22 22 22 22 22 21 20 20 21 21 20 19 19 20 22 23 24 25 24 24 25 25 26 27 27 26 26 26 26 26 26 27 29 31 32 34 36 37 39 40 41 42 42 43 43 44 45 46 47 47 47 49 52 55 56 57 56 54 52 51
31 30 31 31 31 31 30 29 30 30 30 29 27 26 26 26 26 25 24 24 24 24 25 25 25 25 25 26 25 25 24 23 23 23 23 22 21 21 22 24 25 26 26 26 26 27 28 29 29 28 28 28 28 28 28 28 29 31 33 34 36 37 39 40 41 43 44 45 46 47 47 48 50 50 50 49 50 53 56 57 57 57 55 54 53
34 33 32 33 33 34 33 32 32 32 31 30 29 29 30 29 29 28 27 27 27 27 27 27 28 27 28 28 28 27 27 25 25 25 25 24 23 24 25 25 26 27 27 27 27 29 30 31 31 30 29 29 30 30 30 31 31 33 34 35 37 39 40 42 43 44 46 48 49 50 51 52 53 53 53 52 52 54 56 57 57 57 56 55 54
36 35 35 35 35 36 35 34 34 33 33 32 32 33 33 33 33 32 31 31 31 30 30 30 30 30 30 30 30 29 28 27 26 26 26 25 25 26 27 28 29 30 30 29 29 30 32 33 33 32 31 31 31 32 32 33 34 35 36 37 38 40 41 43 45 46 47 49 51 52 53 54 55 56 56 55 56 57 58 58 58 57 57 57 55
37 36 37 37 37 38 37 36 36 35 35 35 36 36 36 36 36 35 35 35 34 33 33 33 33 32 32 32 31 30 29 28 27 27 27 26 26 27 28 29 31 32 32 32 31 32 34 35 35 34 33 33 33 33 34 35 36 37 38 39 40 41 43 45 46 47 49 50 51 53 54 56 56 57 58 58 59 59 59 58 58 58 59 58 55
39 38 38 38 39 40 39 38 38 37 37 38 39 39 39 39 39 38 38 38 37 36 36 37 36 35 34 34 33 31 30 30 29 29 28 27 27 27 28 29 31 33 33 33 33 35 36 37 37 36 35 35 35 35 36 37 38 39 40 41 42 43 45 46 47 49 50 51 52 54 55 57 58 59 60 61 61 61 59 58 57 59 60 58 55
43 42 41 40 40 41 41 41 40 39 40 41 41 41 41 42 41 41 41 41 40 39 39 40 39 37 36 36 35 33 32 32 31 31 30 29 29 29 29 30 31 32 34 33 34 36 37 38 38 38 38 38 37 37 38 39 40 41 42 43 44 45 46 48 49 50 52 53 53 54 57 59 60 61 62 63 64 62 57 56 58 60 60 58 55
47 45 44 44 43 43 43 42 42 42 42 42 43 43 43 43 43 43 43 42 42 42 41 41 40 39 38 37 36 36 34 34 33 33 32 31 31 32 32 32 33 34 35 35 35 36 38 39 39 40 40 40 39 40 40 41 42 43 44 46 46 47 48 49 50 52 53 55 55 56 58 60 62 63 63 64 64 59 55 56 58 60 60 58 56
49 48 47 47 47 46 45 44 43 43 43 43 44 44 44 44 44 44 44 43 42 43 42 42 42 40 40 39 39 38 37 36 35 35 35 34 34 34 34 34 35 36 37 37 36 37 39 40 41 42 41 41 42 42 42 43 44 45 46 48 48 49 50 51 52 53 55 56 56 57 60 62 64 64 64 65 62 55 53 56 59 61 60 58 58
52 51 50 50 49 48 48 47 46 45 45 45 45 45 45 45 45 45 44 43 43 43 43 44 43 43 42 42 42 41 40 39 38 38 37 37 37 37 37 37 37 38 39 39 38 39 41 42 43 43 43 43 44 44 44 45 46 47 48 49 50 51 52 53 54 55 56 56 56 59 62 64 65 65 65 63 57 51 53 57 59 62 61 59 60
55 55 54 53 51 50 50 50 49 48 48 47 47 47 46 46 46 46 45 45 44 44 45 46 46 46 46 45 44 44 43 42 41 41 41 41 40 40 39 39 40 41 42 42 41 41 43 44 46 46 44 44 45 46 46 47 48 49 49 50 52 53 54 55 56 56 57 56 57 61 64 66 67 66 64 56 47 47 54 57 60 64 64 62 62
58 58 58 57 55 55 54 53 53 52 51 51 50 49 49 48 48 48 47 47 47 47 47 48 49 49 49 47 46 46 45 45 44 44 44 43 43 43 42 42 43 44 45 45 45 44 45 47 48 48 46 46 48 48 48 49 51 51 51 51 53 55 56 57 58 59 58 57 59 63 66 68 67 63 55 45 40 48 58 58 61 67 66 64 65
57 59 60 60 59 59 58 57 56 55 54 54 53 53 53 52 52 51 51 51 50 49 49 50 51 52 51 50 49 48 48 47 47 47 46 46 46 45 45 46 46 47 48 49 48 47 48 50 50 49 48 49 50 50 50 51 52 52 52 53 55 57 58 59 60 60 60 59 60 64 68 68 64 56 45 38 41 52 59 61 64 69 68 66 67
49 53 57 60 61 61 61 61 60 58 57 57 57 56 56 56 56 55 55 54 53 52 52 53 54 55 54 52 51 51 51 51 51 50 49 49 48 49 49 49 49 50 51 52 51 50 51 52 52 51 50 51 52 52 52 53 54 54 53 54 56 58 59 60 62 62 61 59 60 66 69 64 57 49 40 38 45 55 60 64 69 70 69 69 69
40 43 46 51 57 60 62 63 63 62 62 61 60 60 59 59 59 59 59 58 56 56 56 56 57 57 57 56 55 54 54 55 54 53 52 51 51 52 53 53 52 52 53 53 53 53 52 53 53 52 53 53 54 53 54 55 55 55 55 56 58 60 61 62 63 63 61 59 61 66 62 52 47 45 41 43 51 57 61 67 71 71 71 71 69
35 37 38 41 46 52 57 62 65 66 66 65 64 63 63 63 63 63 62 60 59 59 59 60 60 60 60 60 59 58 58 58 58 57 56 55 54 55 56 56 55 54 53 54 56 55 54 55 55 55 55 55 55 55 56 57 57 57 56 58 60 62 63 63 63 63 62 61 62 62 53 44 45 48 47 49 54 58 63 69 73 74 74 72 69
34 36 36 37 39 43 47 54 59 64 68 68 67 67 67 67 67 66 64 63 62 62 62 62 62 62 63 63 63 62 62 62 61 60 58 58 58 58 58 58 58 57 55 56 57 57 56 56 57 57 57 56 56 56 57 59 59 59 58 59 62 64 65 64 64 64 63 63 64 61 52 44 43 44 45 48 53 58 65 71 75 76 73 70 68
34 36 37 37 38 39 41 45 50 55 61 65 68 70 71 70 70 68 67 67 66 65 65 64 64 64 65 65 65 65 65 65 64 63 62 61 61 62 62 61 60 59 59 58 58 58 58 58 58 58 58 57 57 58 60 61 61 60 60 60 63 66 66 65 65 64 65 65 64 58 46 36 33 35 40 47 53 59 65 72 76 74 71 68 70
36 37 38 39 40 40 41 42 44 47 51 56 62 66 70 72 72 71 71 70 70 69 68 67 66 67 67 67 68 68 68 67 67 65 64 64 64 65 65 63 62 61 61 60 59 60 60 59 59 59 59 59 60 60 62 63 62 62 62 62 64 67 67 66 66 66 66 63 57 48 37 32 34 38 43 48 54 60 67 73 74 71 69 70 72
39 39 40 41 42 43 43 43 44 45 47 50 54 57 62 66 69 71 72 73 73 72 71 70 70 71 71 71 71 70 70 70 69 68 67 68 68 68 67 66 64 63 62 62 61 61 61 60 60 61 62 62 62 63 64 65 65 64 63 64 67 69 67 67 68 66 60 53 46 41 37 38 41 43 46 52 57 63 69 72 71 70 70 72 73
41 41 41 42 42 43 44 45 46 47 49 50 50 50 52 56 59 63 67 70 72 73 74 74 74 75 76 75 74 73 73 73 72 70 71 72 72 71 70 68 67 65 64 65 64 63 63 63 63 64 64 64 64 65 67 68 68 67 66 67 69 68 68 70 69 60 49 44 42 42 42 44 45 47 50 55 61 67 71 71 70 70 71 72 74
42 42 42 43 43 43 45 47 49 50 51 51 50 49 49 50 52 55 57 60 64 69 73 75 76 78 78 78 77 76 76 76 75 74 75 76 76 76 74 72 70 68 68 68 68 67 66 66 67 67 67 67 66 68 70 71 70 68 68 69 69 69 70 70 61 47 41 42 44 46 47 47 47 49 53 58 64 69 71 70 69 69 70 73 75
45 44 43 43 44 45 47 48 49 52 53 52 51 51 50 50 51 51 51 53 57 63 68 71 74 77 78 79 79 79 79 79 78 78 78 79 80 80 78 76 74 73 72 72 71 70 70 70 70 70 70 69 69 70 73 73 71 69 70 71 70 69 68 61 47 39 41 45 48 50 50 48 49 53 57 62 66 69 69 68 68 69 72 76 77
47 46 46 45 45 48 49 50 51 53 53 53 53 53 52 52 52 50 50 52 55 59 63 65 68 71 73 76 78 79 79 80 80 81 81 82 84 84 82 81 80 78 77 76 75 74 74 74 74 74 73 72 72 74 76 75 72 71 71 72 71 67 62 54 45 42 45 50 53 52 51 51 53 57 61 64 67 68 69 69 69 71 75 78 78
49 49 48 48 48 49 51 51 52 53 53 53 53 53 54 54 53 52 52 54 56 57 59 60 62 64 66 69 72 73 75 77 79 81 82 83 85 85 85 85 84 84 82 80 78 77 77 76 76 76 75 74 74 76 78 77 74 72 72 71 69 65 61 56 52 51 53 56 57 54 52 54 57 59 63 66 67 69 71 72 72 74 78 80 79
53 52 51 51 51 52 52 52 52 53 54 54 54 54 55 54 53 53 55 57 57 57 57 57 58 59 60 63 65 66 68 71 74 77 79 81 83 84 84 85 86 86 86 83 81 80 79 78 78 78 77 76 76 79 81 79 75 72 71 70 68 67 64 60 58 58 59 60 58 56 56 58 60 62 65 66 68 70 73 73 74 77 79 81 80
56 56 55 55 54 54 54 54 54 54 54 54 55 55 56 55 55 56 57 58 58 58 58 57 57 57 58 59 61 62 61 63 66 69 71 74 77 78 80 81 83 84 84 84 83 81 80 79 79 79 78 77 78 81 83 80 75 73 72 70 68 68 68 64 61 60 60 59 57 58 59 60 61 64 66 67 69 71 72 74 77 79 81 81 80
58 58 59 58 57 57 56 56 56 55 55 55 56 56 57 57 57 58 58 58 59 59 59 59 59 59 59 59 61 60 59 60 61 63 66 68 70 72 74 75 76 77 78 79 79 79 79 78 78 77 76 77 79 82 82 78 74 72 72 70 69 70 69 65 60 59 60 58 56 58 60 61 63 65 66 67 68 70 72 76 79 80 81 81 79
61 61 61 61 61 61 60 59 58 57 57 56 56 57 58 59 59 59 59 60 60 61 61 61 62 62 61 61 61 60 59 60 60 61 63 64 66 67 68 69 70 70 71 72 72 73 74 74 73 73 72 74 77 80 79 75 71 70 70 69 68 68 64 59 55 57 59 57 55 58 61 62 64 65 65 66 67 70 74 78 79 80 81 80 79
63 63 63 64 64 64 64 63 61 60 59 59 58 58 59 59 60 60 61 62 62 62 62 63 63 63 63 62 60 59 59 60 60 60 61 63 64 64 65 65 66 66 66 67 67 67 67 67 67 68 68 70 74 74 72 70 67 67 68 68 65 61 57 56 56 59 61 58 55 58 61 62 63 64 65 66 68 71 75 79 80 80 80 80 78
65 65 66 66 67 68 67 66 65 64 63 62 61 60 60 60 60 61 61 62 63 63 63 64 64 64 63 62 60 59 59 59 59 60 60 61 62 62 62 62 64 65 65 63 62 61 61 61 62 61 62 65 65 62 60 60 61 62 63 61 58 56 56 59 61 63 63 60 57 57 59 60 62 64 64 66 69 73 77 79 79 80 80 79 78
69 69 69 70 70 70 70 68 67 67 66 65 64 62 62 62 61 62 62 63 64 64 65 65 65 64 63 61 60 58 58 58 58 59 58 58 58 58 57 57 58 60 60 60 59 56 56 57 56 54 56 59 57 53 52 54 57 60 57 53 55 57 58 60 62 62 61 59 57 57 58 59 62 64 66 68 71 75 78 79 79 80 80 79 77
75 74 73 73 73 72 71 70 70 69 69 68 67 65 64 64 63 63 63 64 65 66 66 65 65 64 62 60 58 57 56 56 54 53 53 53 53 52 50 50 52 52 52 52 51 48 48 50 48 44 44 45 44 46 53 61 66 66 59 55 59 62 59 59 60 61 61 61 60 60 61 62 65 67 68 70 72 76 79 79 80 81 80 78 77
80 79 78 77 76 75 74 73 72 72 72 71 69 68 66 65 64 64 64 66 67 67 66 66 65 62 60 59 57 55 54 52 49 48 48 47 48 46 41 40 42 44 44 43 41 41 43 43 38 34 35 38 40 44 50 58 64 67 63 61 62 63 61 61 62 63 65 66 66 65 65 66 68 68 69 70 73 77 79 80 80 81 80 77 77
Wind_Direction
204 196 195 191 186 184 183 182 182 180 173 167 163 160 159 160 160 159 154 152 152 146 136 117 97 83 72 63 57 54 52 52 51 50 47 42 36 32 33 33 32 31 30 32 33 34 34 34 33 32 31 29 29 29 28 28 27 26 25 23 23 22 21 21 20 20 19 18 17 15 14 14 14 13 13 12 10 8 5 3 2 2 1 2 2
212 196 188 184 180 181 182 182 182 179 173 167 163 160 160 161 162 163 162 163 164 158 146 125 101 87 76 64 56 51 51 52 52 51 47 41 33 27 29 30 30 29 29 31 32 33 33 34 33 31 30 28 28 28 27 26 25 24 23 22 20 19 19 18 17 17 17 17 16 15 14 12 12 12 11 10 9 8 5 3 1 360 359 359 359
222 199 187 180 175 180 182 184 184 178 173 170 166 163 163 164 166 168 172 176 176 171 159 135 109 88 75 63 53 49 50 52 53 52 48 41 30 23 25 27 27 26 27 28 30 31 31 32 32 31 29 27 26 27 26 24 23 21 21 20 18 17 16 15 14 14 15 15 15 14 13 12 10 10 9 8 7 6 4 2 -0 358 357 356 356
223 199 188 179 173 178 183 185 185 181 176 173 171 168 167 168 171 174 180 185 187 183 176 160 133 93 72 58 50 47 48 50 51 51 48 40 27 18 20 24 24 23 23 24 26 28 29 30 31 29 27 25 24 25 25 24 22 20 19 17 16 16 14 12 11 12 13 13 13 13 12 11 9 8 8 7 5 4 3 1 359 357 355 354 353
213 192 187 179 173 178 183 186 187 184 180 177 176 176 176 175 176 181 186 191 195 194 191 190 183 172 61 49 45 44 44 46 49 50 47 40 25 14 16 20 20 18 18 19 21 23 24 24 24 23 22 21 21 23 23 22 21 19 17 15 15 14 12 10 10 10 10 10 10 10 9 9 8 7 6 6 5 3 2 360 358 356 354 353 352
200 187 185 178 175 179 184 186 187 187 184 181 180 183 185 184 183 186 192 197 203 203 205 207 207 221 243 349 27 34 36 39 44 47 47 40 25 11 11 16 16 13 13 13 15 17 18 16 15 16 18 17 17 19 20 21 21 19 16 14 14 13 11 9 9 9 8 8 8 8 8 8 7 6 5 5 4 3 2 -0 358 355 353 352 351
191 186 183 177 175 180 185 187 188 188 188 185 184 187 190 190 188 192 197 202 208 211 214 216 220 230 240 256 290 347 15 29 37 44 46 40 27 10 5 10 13 11 9 8 10 12 13 12 13 14 15 13 13 15 16 17 19 19 16 13 12 11 10 9 9 9 8 7 7 7 7 7 7 6 5 4 3 3 2 0 358 356 354 352 351
187 185 180 175 176 182 186 190 191 191 190 189 188 190 193 194 194 198 203 206 211 216 220 223 228 235 242 257 272 289 322 358 21 37 44 40 28 10 1 4 11 11 6 4 6 8 9 9 10 11 11 10 9 10 12 12 15 17 15 12 11 9 8 7 7 7 7 6 5 5 6 5 5 4 4 3 2 2 1 359 358 356 356 354 353
183 183 179 175 178 184 188 191 194 194 193 192 192 194 196 197 199 204 208 210 212 216 221 226 232 238 245 258 271 282 294 315 343 11 32 37 27 10 359 358 4 10 7 1 0 4 6 5 5 6 7 6 5 6 7 8 9 12 12 10 9 7 6 4 4 4 4 4 4 3 4 4 4 3 2 2 1 0 359 358 356 355 355 354 353
180 181 179 179 182 186 190 193 196 197 197 197 197 198 200 200 203 207 211 214 215 218 222 227 234 241 246 253 265 276 284 294 313 336 358 19 17 4 355 351 355 5 5 358 354 358 2 2 1 2 3 2 1 2 4 4 5 6 7 8 7 5 3 2 0 0 1 1 1 1 1 1 1 1 0 360 359 359 358 356 355 353 353 353 352
181 181 181 184 188 190 193 195 198 200 200 200 201 203 205 206 207 210 215 218 220 223 226 231 238 244 248 253 261 268 276 283 294 311 328 345 351 347 342 338 342 353 359 352 347 350 355 357 356 356 358 359 358 359 0 0 -0 1 2 4 4 2 0 359 358 357 357 357 357 357 358 358 358 358 358 358 357 356 356 355 354 353 351 351 350
183 184 185 188 190 191 194 197 201 203 203 204 205 208 211 212 213 215 218 220 221 224 229 235 242 248 252 255 260 266 272 276 283 294 308 322 327 326 325 324 326 335 346 344 339 340 347 352 352 352 354 356 355 356 357 357 356 356 357 358 357 357 356 355 354 353 353 353 354 354 354 354 354 355 355 355 355 354 353 352 352 352 351 350 349
189 189 190 192 192 192 194 197 201 204 205 207 210 212 214 216 217 219 222 224 223 223 226 232 240 247 254 258 262 266 270 273 277 283 293 304 311 311 312 312 313 319 329 333 330 331 337 344 347 347 349 351 352 352 353 354 353 353 353 352 352 352 351 351 349 349 349 350 350 350 350 351 351 351 352 353 352 352 351 350 350 350 350 349 348
196 195 196 196 195 195 196 199 201 204 206 209 212 214 217 218 220 223 225 227 227 226 229 233 238 245 252 258 263 266 269 271 274 279 284 292 298 301 302 303 305 309 316 320 320 322 328 336 341 343 345 347 347 347 349 351 350 349 349 348 348 348 348 347 347 347 347 347 347 347 346 347 347 348 349 350 351 351 350 349 348 349 348 347 346
204 203 202 201 199 198 199 202 204 205 207 211 213 215 216 218 220 223 225 227 229 231 235 238 241 244 250 257 264 267 269 271 274 277 280 284 290 295 296 297 299 304 310 313 314 317 322 329 335 337 339 341 342 343 344 347 348 346 345 345 344 344 344 344 344 344 345 345 345 345 344 343 343 344 346 347 348 349 350 349 348 347 347 346 344
210 209 208 206 204 202 202 204 206 207 209 211 212 213 214 215 217 220 223 225 228 232 236 240 242 246 251 258 265 270 272 275 276 278 279 282 286 290 293 295 296 300 306 311 314 317 322 328 332 333 334 335 337 338 339 341 343 343 341 341 340 340 340 340 340 341 342 343 344 344 343 342 341 341 342 344 346 348 349 349 348 347 346 345 343
215 215 214 212 210 207 206 207 208 209 210 211 212 212 212 214 216 218 221 225 228 232 237 242 247 253 257 261 266 270 273 276 278 279 280 282 283 286 289 292 295 298 303 308 312 316 321 326 329 330 330 330 332 333 334 336 339 338 337 337 337 337 336 337 337 338 339 341 342 342 343 343 342 340 340 340 343 346 348 347 347 347 346 345 343
218 219 219 219 218 215 212 212 212 212 213 214 214 215 217 220 222 224 227 230 234 237 243 248 253 258 262 266 268 270 270 272 276 279 280 281 282 283 285 288 292 296 300 304 308 311 315 320 325 327 327 327 328 329 330 332 333 334 333 332 332 333 333 334 335 336 336 337 338 339 341 343 343 342 341 340 341 343 345 345 345 345 345 344 342
220 221 222 223 223 222 219 217 218 218 218 219 220 222 225 227 230 232 235 238 240 243 248 253 256 260 264 268 270 271 271 271 272 275 276 278 280 280 281 284 288 292 296 300 302 304 307 313 320 323 324 324 324 325 326 327 329 329 329 329 328 329 330 332 333 334 334 335 336 337 339 341 342 342 342 341 340 340 342 342 342 343 344 343 341
223 223 224 226 227 227 225 223 223 224 224 224 225 227 230 232 235 238 241 243 245 248 252 256 260 263 265 268 269 271 272 271 270 271 272 274 278 279 279 281 283 287 291 295 298 299 302 308 315 319 321 321 321 322 323 324 325 326 326 326 326 326 328 329 330 332 332 333 334 336 338 339 340 341 341 340 338 338 340 340 340 340 342 342 340
228 227 226 227 229 231 230 229 228 229 230 230 230 231 233 235 238 240 244 247 249 253 256 259 262 265 266 267 268 269 270 271 270 269 269 272 276 279 280 280 281 283 286 289 293 295 298 304 310 314 317 317 317 318 320 321 321 322 322 323 324 324 325 326 328 330 331 331 333 335 337 337 338 338 339 339 337 337 338 339 339 339 340 340 340
232 231 230 230 231 233 234 233 233 234 235 236 236 237 237 239 241 243 245 248 252 256 259 262 264 265 266 266 266 267 269 270 270 270 269 271 274 278 280 281 281 282 284 286 289 291 295 301 307 311 313 313 314 315 316 317 318 319 319 320 320 322 323 325 327 328 329 330 332 334 335 335 335 336 337 337 336 336 337 338 339 339 339 339 339
237 235 233 233 233 234 235 235 237 237 238 239 240 241 242 243 244 246 248 251 254 258 261 263 264 265 265 264 264 266 267 268 270 271 271 271 273 275 277 278 280 282 283 285 287 289 293 300 305 308 309 310 311 313 314 315 316 316 317 317 318 319 321 323 325 326 327 328 330 332 333 333 333 334 334 335 335 335 336 338 338 338 338 339 339
240 239 237 236 235 235 235 236 237 238 239 241 242 243 244 245 247 248 250 253 256 258 261 262 264 264 264 263 263 265 266 268 270 272 272 272 272 274 275 275 277 279 281 284 286 288 293 298 303 305 306 307 309 310 311 312 313 314 315 315 316 318 320 321 322 323 325 327 329 330 331 331 331 332 333 333 334 335 336 338 338 337 338 339 339
236 238 239 239 238 237 237 236 236 237 239 241 243 244 246 247 248 250 251 254 256 258 259 261 263 263 264 264 264 265 267 269 271 272 272 273 273 274 275 276 276 278 281 284 287 289 293 297 301 302 303 305 307 308 309 310 311 312 313 314 316 317 319 319 319 320 323 325 328 329 329 329 329 330 331 332 334 335 337 338 338 337 338 339 341
236 236 238 239 240 240 240 239 238 238 239 241 243 245 246 248 250 251 253 255 256 257 259 261 262 263 263 264 265 266 267 269 270 271 271 272 272 273 275 276 277 279 282 284 287 290 292 296 298 299 300 303 305 306 307 308 310 310 311 312 315 316 317 317 318 319 321 324 326 327 327 327 328 329 330 331 333 334 336 337 337 337 339 340 341
241 239 239 239 240 242 243 243 243 242 241 242 243 245 246 249 250 252 254 255 256 257 259 260 262 263 263 264 265 267 268 268 269 270 270 271 272 273 274 276 278 280 281 283 286 289 291 294 295 296 299 302 303 304 305 306 308 309 310 312 314 315 315 316 318 319 320 323 325 326 325 326 327 328 329 330 331 333 335 336 336 338 340 341 342
241 242 242 241 240 240 242 243 244 245 245 244 245 245 247 248 250 251 252 253 254 255 258 260 262 262 262 263 264 266 267 268 268 269 270 270 271 273 274 276 277 278 280 283 285 287 290 291 292 294 298 300 301 302 304 305 306 307 309 311 312 313 314 316 318 318 319 321 324 324 325 326 327 328 328 329 332 335 336 334 335 339 340 341 342
239 240 242 244 243 242 242 242 242 244 245 246 246 247 247 248 249 250 251 252 252 254 256 258 260 261 261 262 263 264 266 267 268 268 269 270 272 273 274 275 276 278 280 282 284 286 288 289 291 294 297 298 300 301 303 304 305 306 308 309 310 312 313 314 316 317 318 320 322 324 326 327 327 328 329 330 333 337 337 334 335 338 339 340 342
238 239 241 243 244 245 245 244 244 244 245 246 247 247 248 248 249 250 250 251 252 253 254 256 258 259 260 262 263 263 264 265 266 267 268 270 271 273 274 275 276 278 279 280 283 286 288 289 292 294 296 297 298 301 302 303 304 305 305 307 309 310 311 313 316 317 317 319 321 325 328 328 327 327 329 329 330 333 334 334 335 337 338 339 342
239 240 241 242 243 245 246 247 247 247 247 248 247 247 247 248 249 250 251 251 252 253 254 256 258 259 261 262 262 263 264 265 265 266 267 269 271 273 273 274 275 277 278 280 283 286 287 289 291 294 295 295 297 299 300 301 302 303 303 305 307 308 310 313 315 316 317 318 321 326 330 329 326 327 326 325 327 329 331 334 336 337 337 340 342
242 241 242 243 243 244 245 247 247 248 248 248 249 249 248 249 249 249 250 251 253 254 255 256 258 260 262 262 262 263 264 264 265 266 267 268 270 271 272 273 274 275 278 280 283 285 287 289 292 293 294 294 296 298 298 299 300 301 301 303 306 307 310 312 314 315 316 317 320 326 330 326 320 319 317 317 323 328 330 334 337 337 338 341 341
248 245 244 246 246 245 245 246 247 247 247 248 249 250 250 250 250 250 251 251 253 254 255 256 257 259 261 262 262 262 263 264 265 266 268 269 270 271 272 273 274 275 277 279 281 284 287 289 291 291 291 293 295 296 297 297 298 300 301 302 304 307 309 311 313 314 315 315 318 323 324 312 302 303 306 311 321 327 332 335 336 337 340 341 339
253 250 248 248 249 248 248 248 248 248 247 247 248 249 250 251 252 252 253 253 253 254 254 255 256 258 260 262 263 263 263 264 266 267 268 269 270 271 272 272 273 275 276 278 281 284 286 287 289 289 291 292 294 295 295 296 298 300 301 301 303 307 308 310 312 313 314 314 315 318 315 302 293 297 305 314 322 328 332 333 334 337 340 339 337
253 253 252 252 253 252 252 252 251 251 251 250 249 249 250 251 252 253 254 255 255 255 256 257 258 259 260 261 263 264 265 265 266 267 268 269 270 271 271 272 273 274 276 277 279 282 283 284 286 288 290 291 292 293 294 295 298 300 299 300 303 306 307 309 311 312 314 314 314 315 312 303 299 306 313 319 324 326 328 330 334 337 339 337 336
251 253 254 255 256 256 256 256 255 254 254 253 252 251 251 252 253 254 255 256 257 257 258 259 260 260 261 261 262 263 264 265 266 267 268 269 269 270 270 271 272 273 275 276 278 280 281 283 285 287 288 289 290 292 293 295 297 299 299 300 302 305 307 308 309 312 314 313 312 313 312 310 312 315 317 320 322 324 326 331 335 337 337 336 334
252 252 253 255 257 258 259 260 259 258 257 255 254 253 253 253 254 255 256 256 257 258 259 259 260 261 261 261 262 263 264 265 266 267 267 268 268 269 270 272 272 273 275 276 277 279 281 283 284 285 286 288 290 292 293 294 296 298 299 300 301 304 306 306 309 314 313 310 309 312 313 314 316 317 319 322 324 326 330 334 336 337 335 334 332
253 253 252 252 254 257 259 261 261 261 260 259 257 257 256 256 255 255 256 257 258 259 259 259 260 260 261 261 262 262 263 265 266 267 267 267 268 269 270 271 272 274 275 275 277 278 280 282 283 284 285 287 289 291 292 293 294 297 299 300 301 303 305 307 311 313 308 306 310 313 313 314 316 317 320 324 327 330 333 336 336 334 333 331 330
254 254 252 251 252 253 256 258 261 262 262 263 263 262 261 261 259 257 256 258 259 259 259 259 259 259 260 261 261 262 263 264 266 267 267 268 268 269 270 271 273 274 274 275 276 278 279 281 281 283 284 286 288 290 290 291 293 296 298 299 300 302 306 310 312 307 302 306 312 312 311 313 315 318 323 327 329 332 334 335 333 331 329 328 329
255 255 253 251 251 252 252 254 257 260 263 264 265 265 264 264 263 262 261 261 261 260 260 260 259 259 260 261 262 263 264 265 266 267 267 268 269 270 271 272 272 273 273 274 276 277 278 279 280 282 283 285 287 288 288 289 292 295 296 297 298 302 308 310 306 297 298 305 309 309 310 311 314 319 323 326 329 332 333 332 329 327 326 327 328
256 256 254 252 251 253 254 254 255 258 261 263 265 266 266 266 266 266 266 264 263 262 262 262 262 262 262 263 263 263 264 265 266 266 267 268 269 270 271 272 272 272 272 273 274 275 276 277 279 280 282 283 285 286 286 288 290 292 294 295 296 301 306 305 296 291 295 301 305 307 307 309 313 317 320 324 328 330 330 329 327 325 326 327 328
257 257 257 255 253 254 256 257 257 258 259 261 263 264 266 266 267 267 266 265 264 264 264 265 265 266 265 265 265 265 265 265 266 266 267 268 269 270 271 272 273 273 272 273 273 274 275 276 278 279 280 282 283 284 284 286 288 290 293 294 295 299 301 298 292 290 292 297 302 305 305 308 312 315 317 321 325 327 326 326 325 324 325 327 327
256 258 258 257 256 255 257 258 259 259 259 260 261 262 263 265 266 266 266 267 267 268 268 268 268 268 268 268 267 266 266 266 266 267 267 268 269 270 271 272 273 274 274 275 275 274 275 276 276 277 278 280 281 281 282 283 285 288 291 291 293 297 299 297 293 291 293 296 299 302 304 306 309 311 314 318 321 323 323 323 322 323 324 325 326
257 258 259 259 257 257 256 257 259 260 260 260 260 260 261 263 263 264 267 268 270 270 270 270 270 270 270 270 270 269 268 268 268 267 268 268 269 269 270 271 272 273 274 275 276 276 276 276 276 277 277 278 279 278 279 281 284 287 289 290 292 296 298 298 295 294 295 296 296 299 302 304 305 308 312 315 317 319 321 321 320 321 323 324 325
257 258 260 260 259 258 257 257 258 258 259 260 261 261 261 261 262 264 265 267 268 270 270 271 271 271 270 270 271 271 270 269 268 268 268 268 268 269 270 271 272 273 274 276 276 277 277 277 277 277 277 278 278 277 278 281 283 286 288 289 292 295 297 296 294 293 294 294 293 295 299 301 303 306 310 312 315 317 318 318 319 320 321 323 324
256 258 259 260 260 259 258 258 258 258 259 259 260 261 261 261 261 262 264 265 267 268 270 270 271 271 271 270 270 271 271 270 270 269 270 270 271 271 271 272 273 274 275 276 276 277 278 278 278 278 277 276 276 276 279 281 284 285 286 287 290 293 294 293 291 290 292 291 289 291 296 298 301 304 307 310 313 315 316 316 317 318 320 322 323
255 256 257 258 259 259 259 258 258 258 258 259 260 260 260 260 261 261 262 264 265 267 268 269 270 271 271 271 271 272 272 272 271 270 271 271 272 273 274 275 276 276 277 277 277 278 279 280 280 279 277 275 274 276 279 282 283 283 283 286 289 289 287 289 290 289 289 288 285 287 291 295 299 302 305 308 311 313 313 314 315 317 319 321 322
254 255 255 256 256 257 257 258 258 258 259 259 260 261 261 260 260 261 261 263 264 266 267 268 269 269 270 271 272 272 272 272 272 271 270 271 272 274 276 277 277 278 278 279 280 280 281 281 280 280 280 279 279 280 282 282 282 283 285 287 288 285 284 288 290 288 285 284 281 283 288 293 297 300 303 306 309 310 311 312 313 315 317 319 320
253 253 253 253 254 255 256 257 257 258 259 259 260 261 261 261 260 260 260 261 262 263 265 266 268 269 270 271 271 271 272 273 272 271 272 273 275 276 276 276 276 277 278 279 281 282 281 280 281 282 283 284 285 286 286 284 283 284 285 285 283 282 285 289 289 286 285 282 279 281 286 291 295 299 302 305 307 308 309 310 312 314 316 318 319
251 251 251 251 252 253 254 255 256 257 258 259 260 261 261 261 261 260 260 260 261 261 263 265 266 268 270 271 271 271 273 272 271 272 273 273 273 272 273 276 278 280 283 285 286 285 282 282 285 286 287 290 293 294 293 291 289 285 280 277 277 277 280 285 287 285 284 282 280 282 286 289 293 297 300 303 305 306 307 308 310 313 315 317 319
248 249 249 250 251 252 253 253 254 255 256 257 259 261 262 262 262 261 262 262 262 262 263 264 266 269 270 271 271 271 271 268 266 265 265 266 267 268 271 278 282 287 292 294 294 291 287 287 288 287 286 288 290 289 286 283 282 281 279 278 277 274 274 280 284 284 283 282 282 283 286 289 292 296 299 302 304 304 305 307 309 312 314 316 319
Height
10954 10954 10956 10957 10959 10961 10963 10965 10967 10969 10971 10972 10973 10975 10977 10978 10979 10980 10981 10982 10983 10984 10985 10985 10986 10987 10987 10987 10988 10988 10988 10988 10987 10987 10986 10986 10985 10984 10984 10984 10984 10983 10983 10982 10981 10980 10979 10978 10977 10976 10974 10973 10971 10970 10968 10967 10965 10964 10962 10961 10959 10958 10957 10955 10954 10953 10952 10950 10948 10946 10945 10943 10942 10941 10940 10939 10937 10936 10934 10932 10931 10929 10928 10926 10924
10953 10953 10954 10956 10958 10961 10963 10965 10968 10969 10971 10972 10974 10975 10976 10977 10978 10979 10981 10982 10983 10984 10984 10985 10986 10987 10987 10988 10988 10988 10988 10988 10988 10987 10987 10986 10985 10984 10984 10984 10984 10983 10983 10982 10981 10980 10979 10978 10977 10976 10974 10973 10972 10970 10969 10967 10966 10965 10963 10962 10961 10959 10958 10956 10955 10954 10952 10950 10948 10946 10945 10943 10942 10941 10939 10938 10937 10935 10933 10931 10930 10928 10926 10924 10923
10953 10953 10953 10955 10957 10960 10963 10965 10967 10969 10971 10972 10973 10975 10976 10977 10978 10979 10980 10981 10982 10984 10984 10985 10986 10986 10987 10988 10988 10988 10988 10988 10987 10987 10986 10986 10985 10984 10984 10984 10984 10983 10982 10982 10981 10980 10979 10978 10977 10976 10975 10974 10972 10971 10969 10968 10967 10965 10964 10963 10962 10960 10958 10958 10956 10954 10953 10951 10949 10947 10945 10944 10942 10941 10940 10938 10936 10935 10933 10931 10929 10927 10925 10923 10921
10952 10952 10953 10954 10956 10959 10962 10965 10967 10969 10970 10972 10973 10975 10975 10976 10977 10978 10979 10981 10982 10983 10984 10985 10985 10986 10987 10987 10988 10988 10987 10987 10987 10987 10986 10986 10985 10984 10984 10984 10983 10982 10982 10981 10980 10980 10979 10978 10978 10976 10975 10974 10973 10971 10970 10969 10968 10967 10965 10964 10962 10960 10959 10958 10957 10955 10953 10951 10949 10947 10946 10945 10943 10942 10940 10938 10936 10934 10932 10930 10928 10927 10925 10923 10921
10950 10951 10953 10954 10955 10958 10960 10963 10966 10968 10970 10972 10973 10975 10976 10976 10977 10978 10979 10980 10982 10983 10983 10984 10985 10986 10987 10987 10987 10987 10987 10987 10987 10987 10986 10985 10985 10984 10984 10984 10983 10982 10981 10980 10980 10979 10979 10978 10978 10977 10975 10975 10974 10972 10971 10970 10969 10968 10966 10965 10963 10961 10960 10958 10956 10954 10952 10950 10949 10947 10946 10945 10943 10941 10940 10938 10936 10934 10931 10929 10927 10925 10924 10922 10920
10949 10950 10952 10953 10954 10957 10959 10962 10965 10967 10969 10971 10973 10974 10975 10977 10977 10978 10979 10980 10981 10982 10983 10983 10984 10985 10986 10986 10987 10987 10986 10986 10986 10986 10986 10985 10985 10984 10984 10983 10983 10982 10981 10980 10980 10979 10979 10978 10978 10977 10976 10975 10974 10973 10972 10971 10970 10968 10967 10965 10963 10962 10961 10959 10957 10955 10953 10951 10950 10948 10947 10945 10943 10941 10940 10938 10936 10934 10932 10929 10927 10925 10923 10921 10919
10948 10950 10951 10953 10955 10957 10959 10962 10964 10966 10969 10971 10972 10973 10975 10976 10977 10978 10979 10980 10980 10981 10982 10983 10984 10984 10985 10985 10986 10986 10986 10986 10986 10985 10985 10985 10984 10983 10983 10983 10982 10982 10981 10980 10979 10979 10979 10978 10977 10977 10976 10975 10975 10973 10972 10971 10970 10969 10967 10966 10964 10963 10961 10960 10958 10956 10954 10952 10951 10949 10947 10946 10944 10942 10940 10938 10936 10934 10932 10930 10928 10925 10923 10921 10918
10947 10949 10951 10952 10955 10957 10959 10961 10963 10965 10968 10970 10971 10973 10974 10975 10976 10977 10978 10979 10980 10980 10981 10982 10983 10983 10984 10984 10985 10985 10985 10985 10985 10985 10984 10984 10983 10983 10982 10982 10982 10981 10980 10980 10979 10979 10978 10978 10977 10976 10976 10975 10975 10974 10972 10971 10970 10969 10968 10966 10965 10963 10962 10960 10958 10956 10955 10953 10951 10949 10947 10946 10944 10942 10940 10938 10935 10933 10931 10929 10927 10924 10922 10920 10917
10947 10948 10950 10952 10954 10956 10958 10961 10963 10964 10966 10968 10970 10971 10972 10974 10975 10976 10977 10977 10978 10979 10980 10980 10981 10982 10983 10983 10984 10984 10984 10984 10984 10984 10984 10983 10982 10982 10981 10980 10980 10980 10980 10979 10979 10979 10978 10977 10976 10976 10975 10975 10974 10973 10972 10971 10970 10969 10968 10966 10965 10963 10962 10960 10958 10956 10954 10952 10950 10948 10947 10945 10943 10942 10939 10937 10935 10932 10930 10927 10925 10923 10921 10919 10917
10946 10948 10950 10952 10953 10955 10957 10959 10961 10963 10965 10966 10967 10969 10970 10971 10972 10974 10974 10975 10976 10977 10978 10979 10979 10980 10981 10982 10983 10983 10983 10983 10983 10983 10983 10983 10982 10981 10980 10979 10979 10979 10979 10979 10978 10978 10977 10977 10976 10975 10975 10974 10973 10972 10971 10970 10969 10968 10967 10966 10964 10963 10961 10959 10958 10956 10953 10951 10949 10947 10945 10944 10942 10941 10939 10936 10934 10932 10929 10927 10924 10922 10920 10918 10916
10945 10947 10949 10951 10952 10954 10956 10958 10959 10961 10962 10964 10965 10966 10968 10969 10970 10971 10972 10974 10975 10975 10976 10977 10978 10979 10980 10980 10981 10981 10982 10982 10982 10982 10982 10982 10981 10980 10979 10978 10978 10978 10978 10978 10977 10977 10976 10976 10975 10974 10974 10973 10972 10971 10970 10969 10968 10967 10966 10965 10963 10962 10960 10959 10957 10955 10953 10951 10948 10946 10944 10942 10941 10939 10937 10935 10932 10930 10928 10926 10923 10920 10917 10915 10912
10944 10945 10947 10949 10951 10953 10954 10956 10958 10959 10960 10962 10963 10964 10965 10966 10968 10969 10970 10972 10973 10974 10975 10975 10976 10977 10978 10979 10979 10980 10980 10980 10980 10981 10981 10981 10980 10979 10978 10977 10977 10977 10977 10977 10976 10975 10975 10975 10974 10973 10972 10971 10970 10970 10969 10968 10967 10966 10965 10963 10962 10960 10959 10957 10956 10954 10952 10950 10948 10946 10944 10942 10939 10937 10935 10932 10930 10928 10925 10923 10921 10918 10916 10913 10910
10943 10944 10946 10947 10949 10951 10953 10955 10956 10957 10959 10960 10961 10962 10963 10964 10965 10967 10968 10969 10971 10972 10973 10973 10974 10975 10975 10976 10977 10978 10978 10979 10979 10979 10979 10979 10979 10978 10977 10976 10976 10976 10976 10975 10974 10974 10973 10973 10973 10972 10971 10970 10969 10968 10967 10966 10965 10964 10963 10961 10960 10959 10957 10956 10955 10953 10951 10949 10947 10945 10942 10940 10938 10936 10933 10930 10928 10925 10922 10920 10917 10915 10913 10910 10908
10942 10943 10944 10945 10947 10949 10951 10952 10954 10955 10957 10958 10959 10960 10961 10962 10963 10965 10966 10967 10968 10970 10971 10972 10972 10973 10973 10974 10975 10976 10977 10977 10977 10978 10978 10978 10978 10977 10976 10975 10975 10974 10974 10974 10973 10972 10972 10971 10971 10970 10969 10968 10967 10966 10965 10964 10963 10962 10961 10959 10958 10956 10955 10954 10953 10951 10949 10947 10945 10943 10940 10938 10935 10933 10930 10928 10925 10923 10920 10917 10914 10911 10909 10906 10904
10940 10941 10942 10944 10945 10947 10949 10950 10951 10953 10954 10956 10957 10958 10960 10961 10962 10963 10964 10965 10966 10967 10968 10969 10970 10971 10972 10972 10973 10974 10975 10975 10975 10976 10976 10977 10976 10976 10975 10974 10973 10973 10973 10973 10972 10971 10970 10970 10969 10968 10967 10966 10965 10964 10963 10962 10961 10960 10959 10957 10955 10954 10953 10952 10951 10949 10948 10946 10944 10941 10938 10936 10933 10930 10927 10925 10922 10920 10918 10915 10911 10908 10906 10903 10900
10938 10939 10940 10942 10944 10945 10947 10948 10949 10951 10952 10953 10955 10956 10958 10959 10960 10961 10962 10963 10964 10965 10966 10967 10968 10968 10970 10971 10971 10972 10973 10973 10974 10974 10974 10975 10975 10974 10974 10973 10972 10971 10971 10971 10970 10969 10968 10968 10967 10967 10966 10965 10963 10962 10961 10960 10959 10958 10956 10955 10953 10951 10950 10949 10948 10947 10945 10944 10942 10940 10937 10934 10931 10927 10924 10922 10919 10917 10915 10912 10909 10906 10903 10900 10897
10936 10937 10939 10941 10943 10944 10945 10947 10948 10949 10950 10951 10952 10954 10956 10957 10958 10959 10960 10961 10962 10963 10964 10964 10965 10966 10967 10968 10969 10970 10971 10971 10972 10972 10972 10972 10972 10972 10972 10971 10970 10969 10969 10969 10968 10967 10967 10966 10966 10965 10964 10963 10962 10960 10959 10958 10956 10955 10954 10952 10950 10948 10947 10946 10945 10943 10942 10941 10939 10937 10935 10933 10930 10926 10923 10919 10917 10914 10911 10908 10905 10903 10900 10897 10894
10934 10936 10938 10939 10941 10943 10944 10945 10946 10947 10948 10949 10950 10952 10953 10954 10955 10957 10958 10959 10961 10961 10962 10962 10963 10964 10965 10966 10966 10967 10968 10969 10969 10970 10970 10970 10970 10970 10969 10968 10967 10967 10966 10966 10966 10965 10964 10964 10964 10963 10962 10961 10960 10958 10957 10955 10954 10953 10951 10949 10947 10945 10944 10943 10941 10939 10938 10936 10935 10933 10932 10930 10927 10924 10921 10918 10914 10911 10908 10905 10902 10899 10897 10894 10891
10932 10933 10935 10937 10939 10940 10942 10943 10944 10945 10946 10947 10949 10950 10951 10952 10953 10954 10955 10957 10958 10958 10959 10960 10961 10962 10963 10963 10964 10964 10965 10966 10967 10967 10967 10967 10967 10967 10966 10965 10964 10964 10964 10964 10963 10962 10962 10962 10962 10961 10960 10959 10958 10956 10955 10953 10952 10950 10948 10946 10944 10942 10941 10939 10938 10936 10933 10931 10929 10928 10926 10924 10922 10920 10918 10915 10912 10909 10906 10903 10900 10897 10895 10892 10889
10929 10931 10933 10934 10936 10937 10939 10941 10942 10943 10944 10946 10948 10949 10949 10949 10950 10951 10952 10953 10954 10955 10956 10957 10958 10959 10960 10961 10961 10962 10962 10963 10964 10964 10964 10964 10965 10964 10963 10962 10961 10961 10961 10961 10961 10960 10959 10959 10959 10959 10958 10957 10955 10954 10952 10951 10949 10947 10945 10944 10942 10940 10938 10936 10934 10932 10929 10926 10924 10922 10920 10918 10916 10915 10913 10911 10909 10906 10903 10901 10898 10895 10892 10890 10886
10926 10928 10930 10931 10933 10934 10936 10938 10940 10941 10943 10944 10946 10946 10946 10947 10948 10949 10950 10950 10951 10952 10954 10955 10955 10957 10957 10958 10958 10959 10959 10960 10960 10960 10961 10961 10962 10961 10960 10960 10958 10958 10958 10958 10958 10957 10956 10956 10956 10956 10955 10954 10952 10951 10950 10948 10946 10944 10942 10941 10939 10937 10935 10933 10931 10929 10926 10923 10920 10918 10916 10914 10911 10910 10908 10907 10905 10902 10899 10897 10894 10892 10889 10886 10883
10923 10925 10927 10928 10930 10931 10933 10935 10937 10939 10940 10941 10942 10943 10944 10945 10945 10947 10947 10947 10948 10950 10951 10951 10952 10953 10954 10955 10955 10956 10956 10956 10957 10957 10957 10958 10958 10958 10957 10956 10955 10955 10955 10955 10955 10954 10953 10953 10953 10953 10952 10951 10949 10948 10947 10945 10943 10941 10939 10938 10936 10934 10932 10930 10927 10925 10922 10920 10918 10915 10913 10911 10908 10906 10904 10902 10900 10898 10895 10893 10890 10887 10884 10881 10878
10917 10920 10923 10925 10926 10927 10929 10931 10933 10935 10936 10937 10938 10939 10941 10941 10943 10944 10945 10945 10946 10947 10948 10948 10949 10950 10951 10951 10952 10952 10953 10953 10953 10954 10954 10955 10955 10954 10954 10953 10952 10952 10951 10952 10952 10951 10950 10950 10950 10950 10949 10948 10946 10945 10943 10942 10940 10938 10936 10934 10933 10931 10928 10926 10924 10921 10919 10917 10915 10913 10910 10908 10905 10903 10900 10898 10896 10893 10891 10888 10886 10883 10879 10876 10872
10911 10914 10917 10919 10921 10923 10925 10927 10929 10931 10931 10932 10933 10935 10936 10937 10939 10940 10941 10941 10943 10944 10944 10944 10945 10947 10947 10947 10948 10948 10949 10949 10950 10950 10951 10951 10951 10950 10950 10949 10948 10948 10948 10948 10948 10947 10946 10946 10946 10946 10945 10944 10942 10941 10940 10938 10937 10935 10933 10930 10929 10927 10925 10922 10920 10917 10915 10913 10912 10909 10907 10904 10902 10900 10897 10894 10891 10889 10886 10884 10881 10878 10875 10871 10867
10905 10908 10911 10913 10916 10918 10920 10922 10924 10926 10927 10928 10929 10930 10932 10933 10935 10936 10936 10938 10939 10940 10940 10940 10941 10942 10943 10943 10944 10944 10945 10945 10946 10946 10947 10947 10947 10946 10945 10945 10944 10944 10944 10944 10944 10944 10943 10943 10943 10942 10941 10940 10939 10937 10936 10934 10933 10931 10929 10926 10925 10923 10921 10918 10916 10913 10911 10910 10908 10906 10903 10900 10898 10896 10893 10890 10887 10884 10882 10880 10877 10874 10870 10866 10861
10901 10904 10906 10908 10910 10912 10914 10917 10919 10921 10922 10923 10924 10926 10927 10928 10930 10931 10932 10934 10935 10935 10935 10936 10937 10938 10938 10939 10939 10940 10941 10941 10942 10942 10943 10943 10942 10941 10941 10941 10941 10940 10940 10940 10941 10940 10939 10939 10939 10938 10937 10936 10934 10933 10932 10930 10929 10927 10925 10922 10920 10919 10917 10914 10912 10910 10908 10906 10904 10902 10899 10897 10894 10892 10889 10885 10882 10880 10878 10876 10873 10869 10865 10860 10856
10896 10899 10901 10903 10906 10908 10909 10911 10914 10915 10917 10918 10920 10921 10923 10924 10925 10926 10927 10929 10930 10930 10930 10931 10932 10933 10934 10934 10935 10935 10936 10937 10937 10938 10938 10938 10937 10937 10937 10937 10937 10936 10935 10936 10937 10936 10935 10935 10934 10933 10932 10932 10930 10929 10927 10926 10925 10923 10920 10918 10916 10914 10912 10910 10908 10906 10904 10902 10901 10899 10896 10893 10890 10887 10884 10880 10878 10876 10874 10872 10868 10865 10860 10856 10852
10889 10891 10893 10896 10900 10902 10903 10905 10907 10909 10911 10913 10914 10916 10918 10919 10920 10921 10922 10924 10925 10925 10926 10926 10926 10927 10928 10929 10930 10931 10931 10932 10932 10933 10933 10933 10933 10933 10933 10933 10933 10932 10931 10931 10933 10933 10931 10930 10928 10928 10928 10927 10925 10924 10923 10922 10920 10918 10916 10914 10911 10909 10907 10906 10904 10903 10901 10899 10898 10895 10891 10888 10884 10881 10877 10874 10873 10872 10870 10867 10864 10860 10856 10852 10848
10882 10884 10886 10889 10892 10894 10896 10898 10900 10902 10904 10906 10908 10910 10912 10913 10914 10915 10917 10917 10919 10921 10921 10921 10921 10921 10922 10924 10926 10926 10926 10926 10927 10927 10928 10928 10929 10929 10929 10929 10928 10928 10927 10927 10928 10929 10927 10925 10923 10923 10924 10922 10920 10919 10919 10917 10915 10914 10912 10910 10907 10905 10903 10902 10900 10898 10897 10895 10893 10891 10887 10882 10878 10874 10871 10868 10867 10866 10864 10861 10858 10855 10852 10848 10843
10876 10878 10881 10883 10885 10887 10889 10891 10894 10897 10898 10900 10902 10904 10905 10907 10908 10909 10910 10911 10913 10915 10916 10916 10915 10914 10916 10919 10920 10920 10920 10921 10921 10922 10922 10923 10924 10924 10925 10924 10924 10924 10923 10922 10923 10924 10923 10920 10919 10919 10919 10917 10915 10915 10914 10913 10911 10910 10908 10906 10904 10902 10900 10898 10896 10894 10892 10890 10889 10886 10882 10877 10871 10868 10865 10863 10862 10861 10859 10856 10853 10850 10847 10843 10837
10871 10873 10876 10878 10879 10881 10883 10885 10888 10890 10892 10893 10895 10897 10899 10900 10902 10903 10903 10905 10907 10909 10910 10910 10909 10908 10911 10913 10914 10914 10914 10914 10915 10916 10917 10918 10919 10919 10919 10919 10920 10919 10918 10917 10919 10919 10918 10916 10915 10914 10914 10912 10910 10910 10910 10908 10907 10906 10905 10903 10900 10898 10896 10894 10891 10889 10887 10885 10884 10881 10877 10871 10865 10862 10860 10858 10857 10856 10854 10851 10848 10845 10841 10836 10831
10866 10868 10870 10871 10873 10875 10877 10878 10880 10882 10884 10886 10887 10889 10892 10893 10895 10896 10896 10899 10902 10903 10904 10905 10903 10903 10905 10907 10907 10908 10908 10907 10908 10909 10911 10913 10914 10914 10913 10914 10915 10915 10914 10913 10913 10913 10913 10911 10910 10910 10908 10907 10906 10906 10905 10904 10903 10902 10901 10898 10896 10893 10891 10889 10886 10884 10881 10880 10879 10878 10874 10868 10861 10857 10855 10855 10854 10853 10850 10847 10843 10840 10835 10830 10825
10861 10863 10865 10866 10866 10868 10870 10870 10872 10874 10876 10878 10881 10883 10884 10885 10886 10887 10890 10894 10896 10897 10898 10898 10898 10898 10898 10898 10900 10901 10901 10900 10901 10903 10905 10908 10908 10908 10908 10908 10909 10909 10910 10908 10906 10907 10908 10907 10905 10904 10903 10902 10902 10901 10899 10898 10897 10897 10896 10893 10890 10887 10885 10883 10881 10878 10876 10874 10873 10874 10873 10867 10860 10855 10853 10853 10852 10850 10846 10843 10839 10835 10829 10824 10820
10856 10858 10860 10861 10861 10862 10863 10863 10864 10866 10868 10871 10875 10876 10876 10876 10878 10880 10884 10887 10888 10889 10890 10891 10892 10893 10892 10891 10892 10893 10893 10894 10895 10897 10900 10902 10902 10901 10902 10902 10902 10903 10904 10903 10902 10902 10902 10901 10899 10898 10898 10898 10897 10895 10893 10891 10891 10891 10890 10887 10884 10881 10879 10877 10875 10873 10871 10868 10867 10868 10867 10862 10857 10855 10853 10852 10850 10846 10843 10839 10835 10830 10824 10819 10815
10852 10853 10854 10856 10856 10857 10857 10858 10858 10859 10861 10865 10868 10868 10868 10870 10873 10875 10878 10879 10880 10882 10884 10885 10886 10887 10887 10886 10885 10885 10885 10887 10889 10891 10894 10895 10895 10895 10895 10896 10896 10897 10898 10898 10897 10896 10895 10894 10894 10892 10892 10892 10890 10888 10886 10885 10884 10885 10884 10882 10878 10874 10872 10870 10869 10868 10865 10862 10860 10860 10859 10856 10854 10853 10851 10849 10846 10842 10839 10835 10830 10824 10818 10814 10810
10847 10848 10850 10851 10851 10851 10851 10852 10853 10854 10856 10857 10858 10860 10862 10864 10867 10870 10872 10873 10874 10877 10879 10880 10881 10880 10880 10880 10879 10879 10879 10880 10882 10885 10887 10888 10887 10887 10887 10889 10891 10891 10891 10892 10892 10890 10889 10889 10888 10887 10886 10885 10883 10882 10880 10878 10878 10878 10878 10876 10872 10868 10866 10864 10863 10862 10860 10855 10853 10853 10852 10850 10849 10848 10846 10844 10841 10837 10833 10828 10822 10816 10812 10808 10805
10842 10844 10845 10846 10846 10846 10846 10847 10848 10849 10849 10849 10851 10853 10856 10858 10861 10864 10865 10866 10868 10870 10871 10873 10873 10872 10872 10872 10872 10873 10873 10873 10875 10878 10879 10879 10878 10879 10880 10881 10884 10885 10885 10885 10885 10883 10883 10883 10883 10881 10879 10878 10877 10876 10874 10872 10872 10872 10872 10871 10867 10863 10860 10858 10857 10856 10853 10849 10847 10847 10846 10844 10842 10841 10839 10837 10834 10830 10825 10820 10814 10810 10806 10803 10800
10837 10838 10840 10841 10841 10841 10841 10842 10842 10843 10843 10843 10845 10849 10851 10853 10855 10857 10858 10859 10860 10862 10862 10863 10864 10863 10862 10863 10865 10867 10867 10866 10867 10870 10870 10870 10870 10871 10872 10874 10876 10879 10879 10878 10878 10878 10878 10877 10876 10875 10873 10872 10872 10870 10868 10866 10865 10866 10867 10865 10861 10857 10854 10852 10852 10850 10847 10844 10842 10840 10838 10836 10834 10833 10831 10829 10826 10821 10817 10812 10807 10804 10802 10799 10795
10831 10833 10835 10836 10836 10837 10837 10837 10837 10836 10837 10838 10841 10844 10846 10847 10848 10849 10852 10853 10852 10851 10851 10853 10854 10853 10853 10855 10858 10859 10860 10860 10861 10862 10862 10861 10861 10861 10864 10867 10870 10871 10871 10871 10871 10872 10872 10871 10869 10868 10868 10867 10867 10864 10861 10859 10860 10861 10861 10859 10855 10851 10848 10847 10846 10843 10841 10839 10837 10833 10831 10829 10827 10825 10823 10821 10817 10813 10809 10806 10803 10800 10798 10795 10791
10825 10827 10829 10831 10832 10832 10831 10832 10831 10831 10832 10834 10836 10838 10840 10840 10841 10843 10846 10847 10845 10842 10841 10842 10844 10845 10848 10849 10851 10852 10853 10854 10854 10854 10854 10853 10852 10852 10856 10860 10862 10863 10864 10864 10865 10865 10865 10863 10862 10862 10862 10862 10861 10858 10854 10853 10854 10856 10855 10853 10849 10846 10844 10841 10839 10836 10835 10833 10831 10827 10824 10822 10820 10818 10816 10814 10811 10807 10804 10802 10800 10797 10794 10790 10786
10818 10821 10823 10825 10827 10826 10826 10827 10827 10826 10828 10829 10831 10832 10834 10834 10836 10839 10840 10839 10836 10834 10834 10835 10836 10839 10841 10843 10844 10845 10846 10846 10847 10847 10846 10846 10844 10844 10847 10849 10851 10853 10855 10856 10857 10857 10857 10856 10855 10855 10855 10855 10854 10851 10847 10846 10848 10849 10849 10847 10844 10842 10839 10836 10832 10830 10829 10827 10824 10822 10818 10815 10813 10811 10809 10807 10805 10803 10801 10799 10796 10792 10788 10784 10780
10813 10814 10816 10818 10821 10822 10822 10822 10822 10823 10823 10824 10826 10827 10828 10829 10831 10833 10831 10829 10828 10828 10829 10830 10831 10832 10833 10834 10835 10837 10839 10838 10838 10838 10839 10839 10838 10837 10838 10839 10840 10841 10844 10847 10850 10850 10849 10849 10848 10848 10848 10847 10847 10844 10839 10839 10841 10842 10842 10841 10838 10837 10834 10830 10826 10824 10823 10821 10818 10816 10812 10809 10807 10805 10804 10802 10800 10798 10796 10793 10790 10787 10783 10779 10774
10805 10807 10809 10811 10813 10815 10816 10816 10817 10817 10818 10819 10821 10822 10822 10824 10826 10824 10822 10822 10823 10823 10824 10825 10825 10826 10826 10826 10826 10829 10831 10830 10829 10830 10830 10831 10830 10830 10831 10831 10830 10830 10831 10836 10839 10840 10841 10841 10840 10840 10840 10839 10838 10834 10829 10829 10833 10835 10835 10834 10833 10831 10828 10823 10819 10817 10815 10814 10812 10809 10806 10803 10801 10799 10798 10797 10795 10793 10791 10788 10785 10781 10777 10773 10768
10798 10799 10801 10803 10805 10807 10809 10810 10811 10811 10812 10813 10815 10816 10817 10818 10818 10816 10816 10817 10818 10818 10818 10819 10819 10819 10819 10818 10817 10819 10822 10822 10821 10821 10821 10821 10821 10821 10822 10823 10822 10821 10822 10824 10826 10828 10830 10831 10830 10830 10830 10830 10828 10823 10819 10821 10826 10827 10826 10825 10825 10824 10820 10815 10811 10808 10807 10806 10805 10803 10800 10797 10795 10794 10793 10792 10790 10788 10786 10782 10779 10775 10771 10767 10763
10790 10792 10793 10794 10796 10799 10801 10802 10804 10804 10805 10806 10808 10809 10810 10810 10810 10810 10810 10811 10811 10811 10812 10812 10811 10811 10811 10810 10809 10810 10813 10814 10813 10813 10812 10812 10812 10812 10813 10813 10814 10814 10815 10815 10816 10816 10817 10819 10820 10820 10821 10820 10816 10812 10810 10814 10819 10819 10817 10816 10816 10815 10812 10808 10803 10800 10799 10799 10798 10796 10794 10791 10790 10788 10788 10787 10785 10783 10780 10776 10773 10769 10765 10761 10757
10783 10784 10785 10786 10788 10789 10791 10794 10795 10797 10798 10799 10800 10801 10802 10801 10802 10802 10802 10803 10804 10804 10804 10804 10803 10802 10802 10802 10802 10802 10804 10804 10805 10805 10804 10804 10803 10804 10805 10805 10806 10807 10807 10807 10808 10807 10807 10808 10809 10810 10811 10810 10806 10802 10804 10808 10812 10811 10808 10807 10808 10807 10805 10802 10797 10794 10793 10792 10792 10790 10787 10786 10784 10784 10783 10782 10780 10777 10774 10771 10767 10764 10760 10755 10751
10774 10776 10777 10778 10779 10780 10781 10784 10786 10788 10790 10791 10792 10793 10794 10794 10794 10794 10794 10794 10795 10795 10796 10795 10794 10794 10794 10794 10795 10796 10795 10795 10796 10797 10797 10796 10795 10796 10796 10797 10797 10797 10797 10798 10799 10799 10799 10799 10799 10799 10800 10799 10797 10798 10801 10803 10804 10803 10801 10801 10802 10801 10799 10796 10793 10790 10788 10787 10786 10784 10782 10781 10780 10779 10778 10776 10774 10771 10768 10765 10761 10758 10754 10750 10746
10765 10767 10768 10769 10770 10770 10772 10774 10776 10778 10781 10782 10784 10785 10785 10786 10786 10786 10786 10787 10786 10786 10787 10787 10787 10787 10787 10787 10788 10788 10788 10788 10788 10789 10790 10790 10789 10789 10789 10789 10788 10787 10787 10788 10790 10791 10791 10791 10790 10790 10789 10787 10788 10793 10797 10798 10796 10795 10795 10795 10795 10794 10793 10792 10789 10785 10783 10782 10780 10779 10778 10776 10775 10774 10773 10771 10769 10766 10763 10760 10756 10753 10749 10745 10741
10755 10756 10757 10759 10760 10761 10763 10765 10767 10769 10772 10773 10775 10776 10777 10777 10778 10778 10778 10779 10779 10779 10780 10780 10779 10780 10780 10781 10782 10782 10782 10782 10782 10782 10783 10783 10783 10783 10782 10782 10781 10780 10780 10780 10781 10782 10783 10783 10784 10785 10783 10780 10782 10785 10788 10789 10789 10789 10790 10790 10789 10788 10788 10787 10784 10779 10777 10776 10775 10774 10773 10771 10770 10769 10768 10766 10764 10761 10758 10754 10751 10748 10744 10740 10736
10741 10744 10746 10748 10749 10751 10754 10756 10758 10760 10762 10764 10765 10767 10768 10769 10769 10769 10770 10771 10771 10772 10773 10773 10773 10773 10775 10775 10776 10776 10776 10776 10775 10776 10776 10776 10776 10775 10775 10775 10774 10773 10774 10774 10774 10774 10775 10776 10778 10780 10779 10777 10777 10777 10777 10777 10778 10780 10783 10786 10785 10784 10784 10782 10778 10774 10772 10770 10769 10768 10767 10766 10765 10765 10764 10762 10759 10756 10752 10749 10746 10742 10738 10735 10730
10728 10731 10735 10737 10740 10742 10745 10747 10750 10751 10753 10754 10756 10757 10758 10759 10760 10760 10761 10761 10762 10763 10765 10765 10766 10767 10768 10769 10769 10769 10769 10768 10769 10769 10768 10769 10769 10769 10770 10770 10769 10768 10768 10768 10768 10768 10768 10770 10773 10774 10773 10773 10774 10774 10775 10775 10773 10771 10774 10779 10779 10779 10778 10776 10772 10769 10766 10764 10763 10763 10762 10761 10761 10761 10759 10757 10754 10750 10747 10743 10740 10737 10733 10729 10725